Year,Month,Day,Hour,Minute,Value (Times are PST for insolation in W/m^2)
2021,08,05,00,00,0.00
2021,08,05,00,01,0.00
2021,08,05,00,02,0.00
2021,08,05,00,03,0.00
2021,08,05,00,04,0.00
2021,08,05,00,05,0.00
2021,08,05,00,06,0.00
2021,08,05,00,07,0.00
2021,08,05,00,08,0.00
2021,08,05,00,09,0.00
2021,08,05,00,10,0.00
2021,08,05,00,11,0.00
2021,08,05,00,12,0.00
2021,08,05,00,13,0.00
2021,08,05,00,14,0.00
2021,08,05,00,15,0.00
2021,08,05,00,16,0.00
2021,08,05,00,17,0.00
2021,08,05,00,18,0.00
2021,08,05,00,19,0.00
2021,08,05,00,20,0.00
2021,08,05,00,21,0.00
2021,08,05,00,22,0.00
2021,08,05,00,23,0.00
2021,08,05,00,24,0.00
2021,08,05,00,25,0.00
2021,08,05,00,26,0.00
2021,08,05,00,27,0.00
2021,08,05,00,28,0.00
2021,08,05,00,29,0.00
2021,08,05,00,30,0.00
2021,08,05,00,31,0.00
2021,08,05,00,32,0.00
2021,08,05,00,33,0.00
2021,08,05,00,34,0.00
2021,08,05,00,35,0.00
2021,08,05,00,36,0.00
2021,08,05,00,37,0.00
2021,08,05,00,38,0.00
2021,08,05,00,39,0.00
2021,08,05,00,40,0.00
2021,08,05,00,41,0.00
2021,08,05,00,42,0.00
2021,08,05,00,43,0.00
2021,08,05,00,44,0.00
2021,08,05,00,45,0.00
2021,08,05,00,46,0.00
2021,08,05,00,47,0.00
2021,08,05,00,48,0.00
2021,08,05,00,49,0.00
2021,08,05,00,50,0.00
2021,08,05,00,51,0.00
2021,08,05,00,52,0.00
2021,08,05,00,53,0.00
2021,08,05,00,54,0.00
2021,08,05,00,55,0.00
2021,08,05,00,56,0.00
2021,08,05,00,57,0.00
2021,08,05,00,58,0.00
2021,08,05,00,59,0.00
2021,08,05,01,00,0.00
2021,08,05,01,01,0.00
2021,08,05,01,02,0.00
2021,08,05,01,03,0.00
2021,08,05,01,04,0.00
2021,08,05,01,05,0.00
2021,08,05,01,06,0.00
2021,08,05,01,07,0.00
2021,08,05,01,08,0.00
2021,08,05,01,09,0.00
2021,08,05,01,10,0.00
2021,08,05,01,11,0.00
2021,08,05,01,12,0.00
2021,08,05,01,13,0.00
2021,08,05,01,14,0.00
2021,08,05,01,15,0.00
2021,08,05,01,16,0.00
2021,08,05,01,17,0.00
2021,08,05,01,18,0.00
2021,08,05,01,19,0.00
2021,08,05,01,20,0.00
2021,08,05,01,21,0.00
2021,08,05,01,22,0.00
2021,08,05,01,23,0.00
2021,08,05,01,24,0.00
2021,08,05,01,25,0.00
2021,08,05,01,26,0.00
2021,08,05,01,27,0.00
2021,08,05,01,28,0.00
2021,08,05,01,29,0.00
2021,08,05,01,30,0.00
2021,08,05,01,31,0.00
2021,08,05,01,32,0.00
2021,08,05,01,33,0.00
2021,08,05,01,34,0.00
2021,08,05,01,35,0.00
2021,08,05,01,36,0.00
2021,08,05,01,37,0.00
2021,08,05,01,38,0.00
2021,08,05,01,39,0.00
2021,08,05,01,40,0.00
2021,08,05,01,41,0.00
2021,08,05,01,42,0.00
2021,08,05,01,43,0.00
2021,08,05,01,44,0.00
2021,08,05,01,45,0.00
2021,08,05,01,46,0.00
2021,08,05,01,47,0.00
2021,08,05,01,48,0.00
2021,08,05,01,49,0.00
2021,08,05,01,50,0.00
2021,08,05,01,51,0.00
2021,08,05,01,52,0.00
2021,08,05,01,53,0.00
2021,08,05,01,54,0.00
2021,08,05,01,55,0.00
2021,08,05,01,56,0.00
2021,08,05,01,57,0.00
2021,08,05,01,58,0.00
2021,08,05,01,59,0.00
2021,08,05,02,00,0.00
2021,08,05,02,01,0.00
2021,08,05,02,02,0.00
2021,08,05,02,03,0.00
2021,08,05,02,04,0.00
2021,08,05,02,05,0.00
2021,08,05,02,06,0.00
2021,08,05,02,07,0.00
2021,08,05,02,08,0.00
2021,08,05,02,09,0.00
2021,08,05,02,10,0.00
2021,08,05,02,11,0.00
2021,08,05,02,12,0.00
2021,08,05,02,13,0.00
2021,08,05,02,14,0.00
2021,08,05,02,15,0.00
2021,08,05,02,16,0.00
2021,08,05,02,17,0.00
2021,08,05,02,18,0.00
2021,08,05,02,19,0.00
2021,08,05,02,20,0.00
2021,08,05,02,21,0.00
2021,08,05,02,22,0.00
2021,08,05,02,23,0.00
2021,08,05,02,24,0.00
2021,08,05,02,25,0.00
2021,08,05,02,26,0.00
2021,08,05,02,27,0.00
2021,08,05,02,28,0.00
2021,08,05,02,29,0.00
2021,08,05,02,30,0.00
2021,08,05,02,31,0.00
2021,08,05,02,32,0.00
2021,08,05,02,33,0.00
2021,08,05,02,34,0.00
2021,08,05,02,35,0.00
2021,08,05,02,36,0.00
2021,08,05,02,37,0.00
2021,08,05,02,38,0.00
2021,08,05,02,39,0.00
2021,08,05,02,40,0.00
2021,08,05,02,41,0.00
2021,08,05,02,42,0.00
2021,08,05,02,43,0.00
2021,08,05,02,44,0.00
2021,08,05,02,45,0.00
2021,08,05,02,46,0.00
2021,08,05,02,47,0.00
2021,08,05,02,48,0.00
2021,08,05,02,49,0.00
2021,08,05,02,50,0.00
2021,08,05,02,51,0.00
2021,08,05,02,52,0.00
2021,08,05,02,53,0.00
2021,08,05,02,54,0.00
2021,08,05,02,55,0.00
2021,08,05,02,56,0.00
2021,08,05,02,57,0.00
2021,08,05,02,58,0.00
2021,08,05,02,59,0.00
2021,08,05,03,00,0.00
2021,08,05,03,01,0.00
2021,08,05,03,02,0.00
2021,08,05,03,03,0.00
2021,08,05,03,04,0.00
2021,08,05,03,05,0.00
2021,08,05,03,06,0.00
2021,08,05,03,07,0.00
2021,08,05,03,08,0.00
2021,08,05,03,09,0.00
2021,08,05,03,10,0.00
2021,08,05,03,11,0.00
2021,08,05,03,12,0.00
2021,08,05,03,13,0.00
2021,08,05,03,14,0.00
2021,08,05,03,15,0.00
2021,08,05,03,16,0.00
2021,08,05,03,17,0.00
2021,08,05,03,18,0.00
2021,08,05,03,19,0.00
2021,08,05,03,20,0.00
2021,08,05,03,21,0.00
2021,08,05,03,22,0.00
2021,08,05,03,23,0.00
2021,08,05,03,24,0.00
2021,08,05,03,25,0.00
2021,08,05,03,26,0.00
2021,08,05,03,27,0.00
2021,08,05,03,28,0.00
2021,08,05,03,29,0.00
2021,08,05,03,30,0.00
2021,08,05,03,31,0.00
2021,08,05,03,32,0.00
2021,08,05,03,33,0.00
2021,08,05,03,34,0.00
2021,08,05,03,35,0.00
2021,08,05,03,36,0.00
2021,08,05,03,37,0.00
2021,08,05,03,38,0.00
2021,08,05,03,39,0.00
2021,08,05,03,40,0.00
2021,08,05,03,41,0.00
2021,08,05,03,42,0.00
2021,08,05,03,43,0.00
2021,08,05,03,44,0.00
2021,08,05,03,45,0.00
2021,08,05,03,46,0.00
2021,08,05,03,47,0.00
2021,08,05,03,48,0.00
2021,08,05,03,49,0.00
2021,08,05,03,50,0.00
2021,08,05,03,51,0.00
2021,08,05,03,52,0.00
2021,08,05,03,53,0.00
2021,08,05,03,54,0.00
2021,08,05,03,55,0.00
2021,08,05,03,56,0.00
2021,08,05,03,57,0.00
2021,08,05,03,58,0.00
2021,08,05,03,59,0.00
2021,08,05,04,00,0.00
2021,08,05,04,01,0.00
2021,08,05,04,02,0.00
2021,08,05,04,03,0.00
2021,08,05,04,04,0.00
2021,08,05,04,05,0.00
2021,08,05,04,06,0.00
2021,08,05,04,07,0.00
2021,08,05,04,08,0.00
2021,08,05,04,09,0.00
2021,08,05,04,10,0.00
2021,08,05,04,11,0.00
2021,08,05,04,12,0.00
2021,08,05,04,13,0.00
2021,08,05,04,14,0.00
2021,08,05,04,15,0.00
2021,08,05,04,16,0.00
2021,08,05,04,17,0.00
2021,08,05,04,18,0.00
2021,08,05,04,19,0.00
2021,08,05,04,20,0.00
2021,08,05,04,21,0.00
2021,08,05,04,22,0.00
2021,08,05,04,23,0.00
2021,08,05,04,24,0.00
2021,08,05,04,25,0.00
2021,08,05,04,26,0.00
2021,08,05,04,27,0.00
2021,08,05,04,28,0.00
2021,08,05,04,29,0.00
2021,08,05,04,30,0.00
2021,08,05,04,31,0.00
2021,08,05,04,32,0.00
2021,08,05,04,33,0.00
2021,08,05,04,34,0.00
2021,08,05,04,35,0.00
2021,08,05,04,36,0.00
2021,08,05,04,37,0.00
2021,08,05,04,38,0.00
2021,08,05,04,39,0.00
2021,08,05,04,40,0.00
2021,08,05,04,41,0.00
2021,08,05,04,42,0.00
2021,08,05,04,43,0.00
2021,08,05,04,44,0.00
2021,08,05,04,45,0.00
2021,08,05,04,46,0.00
2021,08,05,04,47,0.00
2021,08,05,04,48,0.00
2021,08,05,04,49,0.00
2021,08,05,04,50,0.00
2021,08,05,04,51,0.00
2021,08,05,04,52,0.00
2021,08,05,04,53,0.00
2021,08,05,04,54,0.00
2021,08,05,04,55,0.00
2021,08,05,04,56,0.00
2021,08,05,04,57,0.00
2021,08,05,04,58,0.00
2021,08,05,04,59,0.00
2021,08,05,05,00,0.00
2021,08,05,05,01,0.00
2021,08,05,05,02,0.00
2021,08,05,05,03,0.00
2021,08,05,05,04,0.00
2021,08,05,05,05,0.00
2021,08,05,05,06,0.00
2021,08,05,05,07,0.00
2021,08,05,05,08,0.00
2021,08,05,05,09,0.00
2021,08,05,05,10,0.00
2021,08,05,05,11,0.00
2021,08,05,05,12,0.00
2021,08,05,05,13,0.00
2021,08,05,05,14,0.00
2021,08,05,05,15,0.00
2021,08,05,05,16,0.00
2021,08,05,05,17,0.00
2021,08,05,05,18,0.00
2021,08,05,05,19,0.00
2021,08,05,05,20,0.00
2021,08,05,05,21,0.00
2021,08,05,05,22,0.00
2021,08,05,05,23,0.00
2021,08,05,05,24,0.00
2021,08,05,05,25,0.00
2021,08,05,05,26,0.00
2021,08,05,05,27,0.00
2021,08,05,05,28,0.00
2021,08,05,05,29,0.00
2021,08,05,05,30,0.00
2021,08,05,05,31,0.00
2021,08,05,05,32,0.00
2021,08,05,05,33,0.00
2021,08,05,05,34,0.00
2021,08,05,05,35,0.00
2021,08,05,05,36,0.00
2021,08,05,05,37,0.00
2021,08,05,05,38,0.00
2021,08,05,05,39,0.00
2021,08,05,05,40,0.00
2021,08,05,05,41,0.00
2021,08,05,05,42,0.00
2021,08,05,05,43,0.00
2021,08,05,05,44,0.00
2021,08,05,05,45,0.00
2021,08,05,05,46,0.00
2021,08,05,05,47,0.00
2021,08,05,05,48,0.00
2021,08,05,05,49,0.00
2021,08,05,05,50,0.00
2021,08,05,05,51,0.00
2021,08,05,05,52,0.00
2021,08,05,05,53,0.00
2021,08,05,05,54,0.00
2021,08,05,05,55,0.00
2021,08,05,05,56,0.00
2021,08,05,05,57,0.30
2021,08,05,05,58,5.00
2021,08,05,05,59,5.00
2021,08,05,06,00,5.00
2021,08,05,06,01,5.00
2021,08,05,06,02,5.00
2021,08,05,06,03,5.00
2021,08,05,06,04,5.40
2021,08,05,06,05,7.00
2021,08,05,06,06,7.00
2021,08,05,06,07,7.00
2021,08,05,06,08,7.00
2021,08,05,06,09,7.20
2021,08,05,06,10,9.00
2021,08,05,06,11,9.00
2021,08,05,06,12,9.00
2021,08,05,06,13,9.00
2021,08,05,06,14,9.00
2021,08,05,06,15,9.30
2021,08,05,06,16,11.00
2021,08,05,06,17,11.00
2021,08,05,06,18,11.00
2021,08,05,06,19,11.00
2021,08,05,06,20,11.00
2021,08,05,06,21,11.10
2021,08,05,06,22,12.00
2021,08,05,06,23,12.00
2021,08,05,06,24,12.00
2021,08,05,06,25,12.00
2021,08,05,06,26,12.00
2021,08,05,06,27,12.30
2021,08,05,06,28,14.00
2021,08,05,06,29,14.00
2021,08,05,06,30,14.00
2021,08,05,06,31,14.00
2021,08,05,06,32,14.10
2021,08,05,06,33,16.00
2021,08,05,06,34,16.00
2021,08,05,06,35,16.00
2021,08,05,06,36,16.00
2021,08,05,06,37,16.00
2021,08,05,06,38,16.20
2021,08,05,06,39,18.00
2021,08,05,06,40,18.00
2021,08,05,06,41,18.00
2021,08,05,06,42,18.00
2021,08,05,06,43,18.00
2021,08,05,06,44,18.90
2021,08,05,06,45,19.00
2021,08,05,06,46,19.00
2021,08,05,06,47,19.00
2021,08,05,06,48,19.00
2021,08,05,06,49,20.60
2021,08,05,06,50,21.00
2021,08,05,06,51,21.00
2021,08,05,06,52,21.00
2021,08,05,06,53,21.00
2021,08,05,06,54,21.00
2021,08,05,06,55,21.00
2021,08,05,06,56,22.90
2021,08,05,06,57,23.00
2021,08,05,06,58,23.00
2021,08,05,06,59,23.00
2021,08,05,07,00,23.00
2021,08,05,07,01,23.00
2021,08,05,07,02,25.00
2021,08,05,07,03,25.00
2021,08,05,07,04,25.00
2021,08,05,07,05,25.00
2021,08,05,07,06,25.00
2021,08,05,07,07,25.00
2021,08,05,07,08,25.20
2021,08,05,07,09,26.00
2021,08,05,07,10,26.00
2021,08,05,07,11,26.00
2021,08,05,07,12,26.00
2021,08,05,07,13,26.00
2021,08,05,07,14,26.00
2021,08,05,07,15,26.00
2021,08,05,07,16,26.90
2021,08,05,07,17,28.00
2021,08,05,07,18,28.00
2021,08,05,07,19,28.00
2021,08,05,07,20,28.00
2021,08,05,07,21,28.00
2021,08,05,07,22,29.00
2021,08,05,07,23,31.90
2021,08,05,07,24,32.20
2021,08,05,07,25,32.90
2021,08,05,07,26,32.80
2021,08,05,07,27,32.40
2021,08,05,07,28,33.00
2021,08,05,07,29,41.20
2021,08,05,07,30,70.80
2021,08,05,07,31,93.80
2021,08,05,07,32,71.20
2021,08,05,07,33,68.30
2021,08,05,07,34,123.30
2021,08,05,07,35,183.70
2021,08,05,07,36,201.20
2021,08,05,07,37,206.10
2021,08,05,07,38,208.00
2021,08,05,07,39,211.80
2021,08,05,07,40,214.70
2021,08,05,07,41,217.40
2021,08,05,07,42,220.50
2021,08,05,07,43,223.60
2021,08,05,07,44,227.90
2021,08,05,07,45,231.70
2021,08,05,07,46,235.20
2021,08,05,07,47,238.20
2021,08,05,07,48,240.70
2021,08,05,07,49,244.60
2021,08,05,07,50,248.00
2021,08,05,07,51,249.30
2021,08,05,07,52,253.40
2021,08,05,07,53,256.50
2021,08,05,07,54,259.70
2021,08,05,07,55,264.20
2021,08,05,07,56,266.30
2021,08,05,07,57,269.00
2021,08,05,07,58,271.90
2021,08,05,07,59,275.50
2021,08,05,08,00,278.80
2021,08,05,08,01,281.80
2021,08,05,08,02,285.90
2021,08,05,08,03,289.00
2021,08,05,08,04,291.30
2021,08,05,08,05,294.40
2021,08,05,08,06,297.10
2021,08,05,08,07,301.20
2021,08,05,08,08,302.70
2021,08,05,08,09,306.10
2021,08,05,08,10,308.60
2021,08,05,08,11,310.60
2021,08,05,08,12,312.90
2021,08,05,08,13,284.80
2021,08,05,08,14,220.70
2021,08,05,08,15,248.20
2021,08,05,08,16,252.10
2021,08,05,08,17,258.90
2021,08,05,08,18,251.90
2021,08,05,08,19,258.80
2021,08,05,08,20,265.30
2021,08,05,08,21,269.90
2021,08,05,08,22,276.90
2021,08,05,08,23,332.90
2021,08,05,08,24,336.60
2021,08,05,08,25,305.10
2021,08,05,08,26,248.90
2021,08,05,08,27,171.30
2021,08,05,08,28,153.20
2021,08,05,08,29,204.20
2021,08,05,08,30,258.60
2021,08,05,08,31,277.10
2021,08,05,08,32,290.90
2021,08,05,08,33,282.30
2021,08,05,08,34,283.00
2021,08,05,08,35,348.10
2021,08,05,08,36,370.50
2021,08,05,08,37,377.30
2021,08,05,08,38,373.70
2021,08,05,08,39,366.00
2021,08,05,08,40,236.50
2021,08,05,08,41,202.00
2021,08,05,08,42,239.50
2021,08,05,08,43,380.00
2021,08,05,08,44,383.50
2021,08,05,08,45,390.20
2021,08,05,08,46,393.50
2021,08,05,08,47,350.70
2021,08,05,08,48,341.90
2021,08,05,08,49,304.00
2021,08,05,08,50,212.00
2021,08,05,08,51,188.40
2021,08,05,08,52,209.60
2021,08,05,08,53,229.90
2021,08,05,08,54,425.50
2021,08,05,08,55,428.50
2021,08,05,08,56,429.90
2021,08,05,08,57,427.60
2021,08,05,08,58,432.90
2021,08,05,08,59,420.70
2021,08,05,09,00,430.70
2021,08,05,09,01,442.60
2021,08,05,09,02,445.50
2021,08,05,09,03,447.50
2021,08,05,09,04,449.70
2021,08,05,09,05,454.10
2021,08,05,09,06,455.60
2021,08,05,09,07,457.90
2021,08,05,09,08,460.70
2021,08,05,09,09,463.50
2021,08,05,09,10,440.10
2021,08,05,09,11,436.50
2021,08,05,09,12,455.70
2021,08,05,09,13,468.00
2021,08,05,09,14,471.00
2021,08,05,09,15,476.70
2021,08,05,09,16,477.90
2021,08,05,09,17,477.40
2021,08,05,09,18,485.60
2021,08,05,09,19,488.40
2021,08,05,09,20,491.20
2021,08,05,09,21,493.50
2021,08,05,09,22,497.10
2021,08,05,09,23,494.70
2021,08,05,09,24,478.00
2021,08,05,09,25,497.60
2021,08,05,09,26,507.20
2021,08,05,09,27,509.60
2021,08,05,09,28,512.10
2021,08,05,09,29,515.40
2021,08,05,09,30,517.70
2021,08,05,09,31,521.60
2021,08,05,09,32,525.30
2021,08,05,09,33,526.80
2021,08,05,09,34,530.30
2021,08,05,09,35,527.80
2021,08,05,09,36,529.40
2021,08,05,09,37,512.90
2021,08,05,09,38,525.60
2021,08,05,09,39,540.00
2021,08,05,09,40,545.10
2021,08,05,09,41,548.50
2021,08,05,09,42,552.10
2021,08,05,09,43,556.20
2021,08,05,09,44,559.80
2021,08,05,09,45,562.70
2021,08,05,09,46,566.60
2021,08,05,09,47,568.40
2021,08,05,09,48,555.60
2021,08,05,09,49,541.30
2021,08,05,09,50,531.90
2021,08,05,09,51,521.40
2021,08,05,09,52,467.80
2021,08,05,09,53,510.60
2021,08,05,09,54,536.70
2021,08,05,09,55,550.00
2021,08,05,09,56,546.20
2021,08,05,09,57,568.30
2021,08,05,09,58,610.80
2021,08,05,09,59,601.60
2021,08,05,10,00,601.50
2021,08,05,10,01,617.70
2021,08,05,10,02,624.80
2021,08,05,10,03,629.10
2021,08,05,10,04,633.00
2021,08,05,10,05,636.20
2021,08,05,10,06,645.70
2021,08,05,10,07,650.90
2021,08,05,10,08,656.00
2021,08,05,10,09,661.50
2021,08,05,10,10,668.60
2021,08,05,10,11,673.10
2021,08,05,10,12,680.80
2021,08,05,10,13,686.10
2021,08,05,10,14,690.20
2021,08,05,10,15,696.30
2021,08,05,10,16,702.60
2021,08,05,10,17,708.10
2021,08,05,10,18,713.70
2021,08,05,10,19,720.20
2021,08,05,10,20,725.40
2021,08,05,10,21,729.80
2021,08,05,10,22,735.00
2021,08,05,10,23,735.00
2021,08,05,10,24,735.00
2021,08,05,10,25,555.10
2021,08,05,10,26,478.00
2021,08,05,10,27,481.50
2021,08,05,10,28,525.90
2021,08,05,10,29,538.70
2021,08,05,10,30,441.30
2021,08,05,10,31,408.00
2021,08,05,10,32,530.40
2021,08,05,10,33,537.80
2021,08,05,10,34,477.30
2021,08,05,10,35,567.30
2021,08,05,10,36,615.80
2021,08,05,10,37,604.10
2021,08,05,10,38,585.40
2021,08,05,10,39,590.90
2021,08,05,10,40,634.00
2021,08,05,10,41,664.50
2021,08,05,10,42,674.60
2021,08,05,10,43,671.90
2021,08,05,10,44,673.00
2021,08,05,10,45,686.50
2021,08,05,10,46,737.00
2021,08,05,10,47,737.00
2021,08,05,10,48,737.00
2021,08,05,10,49,732.30
2021,08,05,10,50,750.00
2021,08,05,10,51,734.20
2021,08,05,10,52,692.80
2021,08,05,10,53,746.50
2021,08,05,10,54,750.40
2021,08,05,10,55,751.00
2021,08,05,10,56,751.10
2021,08,05,10,57,752.00
2021,08,05,10,58,752.80
2021,08,05,10,59,756.10
2021,08,05,11,00,758.70
2021,08,05,11,01,759.00
2021,08,05,11,02,766.50
2021,08,05,11,03,743.00
2021,08,05,11,04,710.00
2021,08,05,11,05,710.00
2021,08,05,11,06,632.30
2021,08,05,11,07,599.00
2021,08,05,11,08,774.80
2021,08,05,11,09,772.10
2021,08,05,11,10,743.90
2021,08,05,11,11,715.00
2021,08,05,11,12,715.00
2021,08,05,11,13,766.00
2021,08,05,11,14,772.80
2021,08,05,11,15,764.70
2021,08,05,11,16,756.70
2021,08,05,11,17,770.20
2021,08,05,11,18,776.00
2021,08,05,11,19,777.10
2021,08,05,11,20,779.60
2021,08,05,11,21,783.30
2021,08,05,11,22,785.10
2021,08,05,11,23,730.20
2021,08,05,11,24,730.80
2021,08,05,11,25,759.00
2021,08,05,11,26,754.10
2021,08,05,11,27,739.00
2021,08,05,11,28,746.10
2021,08,05,11,29,755.30
2021,08,05,11,30,749.00
2021,08,05,11,31,755.40
2021,08,05,11,32,746.80
2021,08,05,11,33,775.20
2021,08,05,11,34,779.50
2021,08,05,11,35,782.60
2021,08,05,11,36,784.00
2021,08,05,11,37,794.90
2021,08,05,11,38,801.30
2021,08,05,11,39,807.00
2021,08,05,11,40,811.20
2021,08,05,11,41,810.60
2021,08,05,11,42,801.60
2021,08,05,11,43,813.70
2021,08,05,11,44,810.70
2021,08,05,11,45,803.20
2021,08,05,11,46,804.40
2021,08,05,11,47,811.10
2021,08,05,11,48,809.50
2021,08,05,11,49,808.40
2021,08,05,11,50,807.70
2021,08,05,11,51,818.20
2021,08,05,11,52,828.20
2021,08,05,11,53,835.40
2021,08,05,11,54,827.60
2021,08,05,11,55,806.30
2021,08,05,11,56,824.60
2021,08,05,11,57,823.60
2021,08,05,11,58,817.20
2021,08,05,11,59,808.80
2021,08,05,12,00,806.00
2021,08,05,12,01,787.60
2021,08,05,12,02,782.50
2021,08,05,12,03,770.50
2021,08,05,12,04,760.80
2021,08,05,12,05,774.50
2021,08,05,12,06,774.80
2021,08,05,12,07,793.00
2021,08,05,12,08,793.00
2021,08,05,12,09,793.00
2021,08,05,12,10,763.60
2021,08,05,12,11,779.50
2021,08,05,12,12,813.80
2021,08,05,12,13,818.00
2021,08,05,12,14,800.00
2021,08,05,12,15,821.50
2021,08,05,12,16,807.50
2021,08,05,12,17,810.20
2021,08,05,12,18,803.50
2021,08,05,12,19,794.20
2021,08,05,12,20,803.40
2021,08,05,12,21,754.30
2021,08,05,12,22,767.70
2021,08,05,12,23,804.80
2021,08,05,12,24,824.70
2021,08,05,12,25,808.80
2021,08,05,12,26,783.80
2021,08,05,12,27,757.80
2021,08,05,12,28,765.10
2021,08,05,12,29,776.20
2021,08,05,12,30,803.20
2021,08,05,12,31,826.70
2021,08,05,12,32,845.50
2021,08,05,12,33,853.00
2021,08,05,12,34,855.20
2021,08,05,12,35,859.60
2021,08,05,12,36,861.90
2021,08,05,12,37,867.30
2021,08,05,12,38,868.80
2021,08,05,12,39,870.00
2021,08,05,12,40,873.70
2021,08,05,12,41,870.20
2021,08,05,12,42,851.00
2021,08,05,12,43,817.90
2021,08,05,12,44,790.30
2021,08,05,12,45,752.00
2021,08,05,12,46,701.80
2021,08,05,12,47,698.00
2021,08,05,12,48,788.20
2021,08,05,12,49,776.70
2021,08,05,12,50,720.30
2021,08,05,12,51,700.10
2021,08,05,12,52,700.60
2021,08,05,12,53,698.10
2021,08,05,12,54,749.30
2021,08,05,12,55,706.80
2021,08,05,12,56,674.00
2021,08,05,12,57,712.20
2021,08,05,12,58,705.20
2021,08,05,12,59,698.90
2021,08,05,13,00,716.50
2021,08,05,13,01,684.50
2021,08,05,13,02,689.20
2021,08,05,13,03,735.00
2021,08,05,13,04,744.00
2021,08,05,13,05,773.40
2021,08,05,13,06,723.60
2021,08,05,13,07,768.10
2021,08,05,13,08,771.60
2021,08,05,13,09,797.20
2021,08,05,13,10,777.40
2021,08,05,13,11,780.60
2021,08,05,13,12,768.60
2021,08,05,13,13,759.90
2021,08,05,13,14,761.00
2021,08,05,13,15,835.90
2021,08,05,13,16,856.20
2021,08,05,13,17,860.20
2021,08,05,13,18,877.10
2021,08,05,13,19,891.90
2021,08,05,13,20,899.30
2021,08,05,13,21,862.20
2021,08,05,13,22,839.80
2021,08,05,13,23,843.90
2021,08,05,13,24,870.10
2021,08,05,13,25,883.20
2021,08,05,13,26,887.30
2021,08,05,13,27,895.50
2021,08,05,13,28,900.90
2021,08,05,13,29,868.40
2021,08,05,13,30,822.00
2021,08,05,13,31,896.00
2021,08,05,13,32,908.90
2021,08,05,13,33,904.00
2021,08,05,13,34,881.70
2021,08,05,13,35,473.50
2021,08,05,13,36,454.00
2021,08,05,13,37,454.00
2021,08,05,13,38,659.30
2021,08,05,13,39,800.40
2021,08,05,13,40,787.30
2021,08,05,13,41,564.90
2021,08,05,13,42,506.60
2021,08,05,13,43,488.90
2021,08,05,13,44,508.70
2021,08,05,13,45,515.00
2021,08,05,13,46,520.50
2021,08,05,13,47,572.30
2021,08,05,13,48,638.70
2021,08,05,13,49,683.80
2021,08,05,13,50,712.60
2021,08,05,13,51,742.20
2021,08,05,13,52,709.00
2021,08,05,13,53,623.80
2021,08,05,13,54,567.10
2021,08,05,13,55,552.00
2021,08,05,13,56,813.10
2021,08,05,13,57,897.80
2021,08,05,13,58,888.50
2021,08,05,13,59,865.80
2021,08,05,14,00,855.00
2021,08,05,14,01,864.50
2021,08,05,14,02,866.70
2021,08,05,14,03,828.80
2021,08,05,14,04,803.90
2021,08,05,14,05,823.90
2021,08,05,14,06,819.00
2021,08,05,14,07,845.40
2021,08,05,14,08,870.10
2021,08,05,14,09,870.40
2021,08,05,14,10,874.20
2021,08,05,14,11,874.70
2021,08,05,14,12,875.50
2021,08,05,14,13,875.70
2021,08,05,14,14,874.20
2021,08,05,14,15,875.20
2021,08,05,14,16,882.20
2021,08,05,14,17,886.00
2021,08,05,14,18,887.00
2021,08,05,14,19,886.70
2021,08,05,14,20,884.30
2021,08,05,14,21,883.70
2021,08,05,14,22,879.40
2021,08,05,14,23,871.80
2021,08,05,14,24,867.00
2021,08,05,14,25,852.00
2021,08,05,14,26,759.80
2021,08,05,14,27,796.80
2021,08,05,14,28,713.30
2021,08,05,14,29,700.20
2021,08,05,14,30,725.80
2021,08,05,14,31,676.30
2021,08,05,14,32,656.00
2021,08,05,14,33,753.30
2021,08,05,14,34,729.00
2021,08,05,14,35,699.80
2021,08,05,14,36,746.50
2021,08,05,14,37,750.20
2021,08,05,14,38,773.20
2021,08,05,14,39,773.30
2021,08,05,14,40,776.80
2021,08,05,14,41,782.90
2021,08,05,14,42,789.70
2021,08,05,14,43,802.80
2021,08,05,14,44,764.20
2021,08,05,14,45,772.80
2021,08,05,14,46,776.30
2021,08,05,14,47,738.10
2021,08,05,14,48,773.40
2021,08,05,14,49,739.00
2021,08,05,14,50,725.90
2021,08,05,14,51,788.40
2021,08,05,14,52,710.70
2021,08,05,14,53,727.30
2021,08,05,14,54,728.00
2021,08,05,14,55,713.60
2021,08,05,14,56,733.80
2021,08,05,14,57,701.00
2021,08,05,14,58,718.50
2021,08,05,14,59,726.80
2021,08,05,15,00,716.00
2021,08,05,15,01,709.40
2021,08,05,15,02,693.40
2021,08,05,15,03,731.50
2021,08,05,15,04,725.50
2021,08,05,15,05,725.30
2021,08,05,15,06,710.00
2021,08,05,15,07,670.40
2021,08,05,15,08,645.40
2021,08,05,15,09,487.00
2021,08,05,15,10,412.40
2021,08,05,15,11,333.30
2021,08,05,15,12,357.80
2021,08,05,15,13,372.10
2021,08,05,15,14,312.40
2021,08,05,15,15,301.70
2021,08,05,15,16,328.50
2021,08,05,15,17,377.40
2021,08,05,15,18,401.00
2021,08,05,15,19,367.90
2021,08,05,15,20,370.40
2021,08,05,15,21,441.20
2021,08,05,15,22,443.50
2021,08,05,15,23,399.40
2021,08,05,15,24,398.80
2021,08,05,15,25,397.00
2021,08,05,15,26,392.40
2021,08,05,15,27,434.10
2021,08,05,15,28,427.60
2021,08,05,15,29,425.10
2021,08,05,15,30,485.00
2021,08,05,15,31,449.60
2021,08,05,15,32,425.40
2021,08,05,15,33,444.90
2021,08,05,15,34,494.50
2021,08,05,15,35,577.60
2021,08,05,15,36,582.20
2021,08,05,15,37,546.40
2021,08,05,15,38,607.70
2021,08,05,15,39,782.00
2021,08,05,15,40,800.00
2021,08,05,15,41,806.10
2021,08,05,15,42,795.00
2021,08,05,15,43,711.70
2021,08,05,15,44,713.90
2021,08,05,15,45,787.00
2021,08,05,15,46,821.00
2021,08,05,15,47,818.40
2021,08,05,15,48,749.90
2021,08,05,15,49,713.20
2021,08,05,15,50,712.90
2021,08,05,15,51,716.70
2021,08,05,15,52,691.00
2021,08,05,15,53,662.80
2021,08,05,15,54,593.80
2021,08,05,15,55,523.00
2021,08,05,15,56,608.00
2021,08,05,15,57,619.40
2021,08,05,15,58,644.00
2021,08,05,15,59,644.80
2021,08,05,16,00,630.20
2021,08,05,16,01,639.40
2021,08,05,16,02,698.20
2021,08,05,16,03,693.50
2021,08,05,16,04,693.00
2021,08,05,16,05,693.00
2021,08,05,16,06,682.00
2021,08,05,16,07,683.40
2021,08,05,16,08,695.90
2021,08,05,16,09,707.50
2021,08,05,16,10,680.30
2021,08,05,16,11,652.50
2021,08,05,16,12,612.50
2021,08,05,16,13,650.60
2021,08,05,16,14,641.80
2021,08,05,16,15,628.90
2021,08,05,16,16,612.50
2021,08,05,16,17,606.40
2021,08,05,16,18,606.30
2021,08,05,16,19,614.50
2021,08,05,16,20,594.20
2021,08,05,16,21,565.90
2021,08,05,16,22,554.30
2021,08,05,16,23,537.00
2021,08,05,16,24,548.90
2021,08,05,16,25,545.40
2021,08,05,16,26,548.30
2021,08,05,16,27,557.00
2021,08,05,16,28,550.60
2021,08,05,16,29,536.80
2021,08,05,16,30,530.20
2021,08,05,16,31,488.00
2021,08,05,16,32,448.40
2021,08,05,16,33,413.80
2021,08,05,16,34,408.60
2021,08,05,16,35,383.00
2021,08,05,16,36,419.20
2021,08,05,16,37,457.70
2021,08,05,16,38,462.50
2021,08,05,16,39,438.70
2021,08,05,16,40,426.20
2021,08,05,16,41,418.30
2021,08,05,16,42,399.40
2021,08,05,16,43,386.40
2021,08,05,16,44,374.70
2021,08,05,16,45,363.80
2021,08,05,16,46,353.80
2021,08,05,16,47,318.90
2021,08,05,16,48,317.40
2021,08,05,16,49,331.20
2021,08,05,16,50,335.50
2021,08,05,16,51,311.70
2021,08,05,16,52,327.10
2021,08,05,16,53,365.10
2021,08,05,16,54,352.70
2021,08,05,16,55,313.60
2021,08,05,16,56,294.50
2021,08,05,16,57,281.70
2021,08,05,16,58,295.20
2021,08,05,16,59,330.60
2021,08,05,17,00,343.20
2021,08,05,17,01,365.20
2021,08,05,17,02,392.00
2021,08,05,17,03,410.00
2021,08,05,17,04,418.50
2021,08,05,17,05,430.10
2021,08,05,17,06,401.20
2021,08,05,17,07,407.80
2021,08,05,17,08,400.00
2021,08,05,17,09,391.90
2021,08,05,17,10,388.00